Weather History for Troy, MI

Change the Weather History Date:

Tuesday, February 19, 2013

  Actual Average (KDET) Record (KDET)
Temperature  
Mean Temperature 34 °F -  
Max Temperature 47 °F 36 °F 55 °F (1951)
Min Temperature 21 °F 25 °F 2 °F (1959)
Degree Days  
Heating Degree Days 31    
Moisture  
Dew Point 25 °F    
Average Humidity 73    
Maximum Humidity 90    
Minimum Humidity 55    
Precipitation  
Precipitation 0.00 in - - ()
Sea Level Pressure  
Sea Level Pressure 29.66 in    
Wind  
Wind Speed 16 mph (WSW)    
Max Wind Speed 23 mph    
Max Gust Speed 33 mph    
Visibility 8 miles    
Events Rain , Snow    
Averages and records for this station are not official NWS values.
T = Trace of Precipitation, MM = Missing Value Source: NWS Daily Summary

Daily Weather History Graph

Daily Weather History Graph

Search for Another Location

Airport:

Trip Planner

Search our weather history database for the weather conditions in past years. The results will help you decide how hot, cold, wet, or windy it might be!

Date:

Astronomy

Feb. 19, 2013 Rise Set
Actual Time 7:23 AM EST 6:10 PM EST
Civil Twilight 6:54 AM EST 6:38 PM EST
Nautical Twilight 6:21 AM EST 7:11 PM EST
Astronomical Twilight 5:49 AM EST 7:44 PM EST
Moon 12:37 PM EST (2/19) 2:58 AM EST (2/19)
Length of Visible Light 11h 44m
Length of Day
10h 46m
Waxing Gibbous, 67% of the Moon is Illuminated
Feb 19
Waxing Gibbous
Feb 25
Full
Mar 4
Last Quarter
Mar 11
New
Mar 19
First Quarter

Hourly Weather History & Observations

Time (EST) Temp. Windchill Dew Point Humidity Pressure Visibility Wind Dir Wind Speed Gust Speed Precip Events Conditions
12:14 AM 47.3 °F - 32.4 °F 56% 29.63 in 10.0 mi South 15.0 mph 19.6 mph N/A   Overcast
12:34 AM 47.7 °F - 32.4 °F 55% 29.61 in 10.0 mi South 12.7 mph 21.9 mph N/A   Overcast
12:54 AM 47.7 °F - 32.5 °F 56% 29.60 in 10.0 mi South 15.0 mph 20.7 mph N/A   Overcast
1:35 AM 45.3 °F 40.1 °F 36.9 °F 72% 29.58 in 10.0 mi South 10.4 mph 19.6 mph N/A Rain Light Rain
1:54 AM 44.1 °F 39.0 °F 38.8 °F 82% 29.56 in 10.0 mi South 9.2 mph - N/A Rain Light Rain
2:14 AM 44.1 °F 38.6 °F 39.4 °F 84% 29.55 in 10.0 mi South 10.4 mph 18.4 mph N/A   Drizzle
2:35 AM 44.4 °F 37.9 °F 40.1 °F 85% 29.53 in 10.0 mi South 13.8 mph 20.7 mph N/A Rain Rain
2:54 AM 44.2 °F 37.0 °F 40.1 °F 85% 29.52 in 10.0 mi South 16.1 mph 25.3 mph N/A Rain Light Rain
3:14 AM 43.9 °F 36.5 °F 40.1 °F 87% 29.51 in 7.0 mi South 16.1 mph 23.0 mph N/A Rain Light Rain
3:35 AM 43.7 °F 36.6 °F 40.1 °F 87% 29.48 in 7.0 mi South 15.0 mph 24.2 mph N/A Rain Light Rain
3:54 AM 43.5 °F 36.1 °F 40.3 °F 88% 29.47 in 7.0 mi South 16.1 mph 26.5 mph N/A Rain Light Rain
4:14 AM 43.7 °F 36.0 °F 40.5 °F 88% 29.45 in 7.0 mi South 17.3 mph 21.9 mph N/A Rain Light Rain
4:35 AM 43.7 °F 36.0 °F 40.6 °F 89% 29.44 in 7.0 mi South 17.3 mph 24.2 mph N/A Rain Rain
4:54 AM 44.2 °F 36.7 °F 41.0 °F 88% 29.44 in 7.0 mi South 17.3 mph 28.8 mph N/A Rain Rain
5:14 AM 44.6 °F 38.4 °F 41.5 °F 89% 29.43 in 5.0 mi SSW 12.7 mph 23.0 mph N/A Rain Light Rain
5:34 AM 44.8 °F 37.1 °F 42.1 °F 90% 29.44 in 5.0 mi SW 18.4 mph 28.8 mph N/A   Drizzle
5:54 AM 42.4 °F 33.1 °F 37.4 °F 82% 29.47 in 10.0 mi West 23.0 mph 32.2 mph N/A   Overcast
6:15 AM 40.6 °F 32.7 °F 35.4 °F 82% 29.48 in 10.0 mi West 15.0 mph 26.5 mph N/A   Overcast
6:34 AM 40.1 °F 32.4 °F 35.1 °F 82% 29.51 in 10.0 mi WSW 13.8 mph 26.5 mph N/A   Overcast
6:54 AM 39.7 °F 31.5 °F 34.7 °F 82% 29.52 in 10.0 mi WSW 15.0 mph 21.9 mph N/A   Overcast
7:15 AM 39.4 °F 31.1 °F 34.7 °F 83% 29.52 in 10.0 mi WSW 15.0 mph 26.5 mph N/A   Overcast
7:34 AM 39.2 °F 30.5 °F 34.3 °F 83% 29.53 in 10.0 mi SW 16.1 mph 24.2 mph N/A   Overcast
7:54 AM 38.3 °F 29.0 °F 32.9 °F 81% 29.54 in 10.0 mi WSW 17.3 mph 25.3 mph N/A   Overcast
8:14 AM 37.8 °F 28.6 °F 32.2 °F 80% 29.55 in 10.0 mi WSW 16.1 mph - N/A   Overcast
8:34 AM 37.4 °F 28.5 °F 32.0 °F 81% 29.56 in 10.0 mi WSW 15.0 mph 25.3 mph N/A   Overcast
8:54 AM 36.5 °F 26.0 °F 31.5 °F 82% 29.57 in 10.0 mi WSW 19.6 mph 24.2 mph N/A   Overcast
9:14 AM 35.2 °F 25.0 °F 30.2 °F 82% 29.58 in 10.0 mi WSW 17.3 mph 26.5 mph N/A   Overcast
9:35 AM 34.3 °F 25.5 °F 30.2 °F 85% 29.59 in 10.0 mi WSW 12.7 mph 25.3 mph N/A   Overcast
9:54 AM 33.4 °F 23.9 °F 28.9 °F 84% 29.60 in 10.0 mi WSW 13.8 mph 25.3 mph N/A   Overcast
10:14 AM 33.3 °F 24.1 °F 28.0 °F 81% 29.60 in 7.0 mi WSW 12.7 mph 21.9 mph N/A   Overcast
10:35 AM 32.2 °F 22.3 °F 27.0 °F 81% 29.61 in 5.0 mi SW 13.8 mph 25.3 mph N/A   Haze
10:54 AM 31.6 °F 20.4 °F 24.6 °F 75% 29.62 in 3.0 mi WSW 17.3 mph 31.1 mph N/A Snow Light Snow
11:14 AM 31.8 °F 20.2 °F 20.8 °F 64% 29.62 in 10.0 mi WSW 18.4 mph 32.2 mph N/A   Overcast
11:34 AM 31.3 °F 19.9 °F 20.5 °F 64% 29.63 in 10.0 mi West 17.3 mph 33.4 mph N/A   Overcast
11:54 AM 32.0 °F 20.8 °F 19.8 °F 61% 29.64 in 10.0 mi WSW 17.3 mph 27.6 mph N/A   Overcast
12:15 PM 30.0 °F 17.5 °F 21.9 °F 72% 29.64 in 2.0 mi WSW 19.6 mph 33.4 mph N/A Snow Light Snow
12:34 PM 30.2 °F 18.1 °F 17.2 °F 59% 29.64 in 10.0 mi WSW 18.4 mph 31.1 mph N/A   Overcast
12:54 PM 30.7 °F 17.5 °F 18.9 °F 61% 29.65 in 10.0 mi WSW 23.0 mph 32.2 mph N/A   Overcast
1:15 PM 28.4 °F 14.7 °F 20.5 °F 72% 29.66 in 1.8 mi SW 21.9 mph 29.9 mph N/A Snow Light Snow
1:34 PM 28.4 °F 17.5 °F 20.3 °F 72% 29.66 in 5.0 mi WSW 13.8 mph 25.3 mph N/A Snow Light Snow
1:54 PM 28.0 °F 14.6 °F 20.1 °F 72% 29.67 in 3.0 mi WSW 20.7 mph 27.6 mph N/A Snow Light Snow
2:14 PM 28.8 °F 15.9 °F 18.9 °F 67% 29.67 in 5.0 mi WSW 19.6 mph 29.9 mph N/A Snow Light Snow
2:34 PM 28.2 °F 14.8 °F 18.3 °F 66% 29.68 in 4.0 mi WSW 20.7 mph 28.8 mph N/A Snow Light Snow
2:54 PM 28.4 °F 15.4 °F 18.5 °F 66% 29.68 in 5.0 mi WSW 19.6 mph 27.6 mph N/A Snow Light Snow
3:14 PM 27.9 °F 16.3 °F 19.9 °F 72% 29.69 in 3.0 mi WSW 15.0 mph 24.2 mph N/A Snow Light Snow
3:35 PM 27.5 °F 16.3 °F 19.4 °F 72% 29.71 in 3.0 mi WSW 13.8 mph 26.5 mph N/A Snow Light Snow
3:54 PM 27.0 °F 14.3 °F 19.0 °F 72% 29.72 in 4.0 mi WSW 17.3 mph 26.5 mph N/A Snow Light Snow
4:14 PM 27.5 °F 15.0 °F 18.5 °F 69% 29.73 in 7.0 mi West 17.3 mph 26.5 mph N/A Snow Light Snow
4:35 PM 28.0 °F 14.9 °F 16.2 °F 61% 29.75 in 10.0 mi WSW 19.6 mph 29.9 mph N/A   Overcast
4:54 PM 27.5 °F 13.5 °F 14.9 °F 59% 29.75 in 10.0 mi WSW 21.9 mph 29.9 mph N/A   Overcast
5:14 PM 27.1 °F 14.1 °F 16.2 °F 63% 29.77 in 7.0 mi WSW 18.4 mph 24.2 mph N/A Snow Light Snow
5:34 PM 27.3 °F 16.1 °F 15.6 °F 61% 29.77 in 10.0 mi WSW 13.8 mph 26.5 mph N/A   Overcast
5:54 PM 26.6 °F 17.5 °F 17.4 °F 68% 29.79 in 4.0 mi WSW 9.2 mph 27.6 mph N/A Snow Light Snow
6:15 PM 25.7 °F 14.0 °F 19.2 °F 76% 29.80 in 2.0 mi West 13.8 mph 19.6 mph N/A Snow Light Snow
7:34 PM 24.3 °F 10.4 °F 17.1 °F 74% 29.85 in 7.0 mi West 18.4 mph 26.5 mph N/A   Overcast
7:54 PM 23.7 °F 9.3 °F 14.2 °F 67% 29.86 in 5.0 mi West 19.6 mph 33.4 mph N/A Snow Light Snow
8:14 PM 23.4 °F 11.6 °F 12.4 °F 63% 29.87 in 7.0 mi West 12.7 mph 25.3 mph N/A   Mostly Cloudy
8:35 PM 22.8 °F 8.5 °F 11.3 °F 61% 29.87 in 7.0 mi West 18.4 mph 26.5 mph N/A   Clear
8:54 PM 22.8 °F 8.5 °F 11.1 °F 61% 29.88 in 7.0 mi West 18.4 mph 28.8 mph N/A   Clear
9:14 PM 22.6 °F 7.5 °F 10.6 °F 60% 29.89 in 7.0 mi West 20.7 mph 28.8 mph N/A   Scattered Clouds
9:35 PM 22.5 °F 7.2 °F 11.5 °F 63% 29.89 in 7.0 mi West 20.7 mph 29.9 mph N/A   Mostly Cloudy
9:54 PM 22.1 °F 8.0 °F 11.3 °F 63% 29.89 in 10.0 mi West 17.3 mph 27.6 mph N/A   Mostly Cloudy
10:14 PM 22.1 °F 8.0 °F 10.9 °F 62% 29.90 in 10.0 mi West 17.3 mph 27.6 mph N/A   Clear
10:35 PM 21.9 °F 8.2 °F 10.9 °F 63% 29.90 in 10.0 mi West 16.1 mph 25.3 mph N/A   Clear
10:54 PM 21.9 °F 6.5 °F 11.5 °F 64% 29.91 in 10.0 mi West 20.7 mph 27.6 mph N/A   Scattered Clouds
11:14 PM 22.1 °F 7.2 °F 12.2 °F 66% 29.91 in 10.0 mi West 19.6 mph 27.6 mph N/A   Overcast
11:34 PM 22.1 °F 10.0 °F 12.2 °F 66% 29.91 in 10.0 mi West 12.7 mph 25.3 mph N/A   Overcast
11:54 PM 22.1 °F 7.6 °F 12.6 °F 67% 29.91 in 10.0 mi West 18.4 mph - N/A   Overcast